Location: Beau Repaire
(50.6144°N, 4.0551°E)
Time: 21:15:38
(UTC+00:00)

Cosmos 2297 Rocket - Pass Details

Date: 15 May 2026
Orbit: 838 x 842 km, 71.0° (Epoch: 8 June)

Event Time Altitude Azimuth Distance (km) Brightness Sun altitude
Exits shadow 23:28:05 40° 180° (S) 1,216 2.5 -20.3°
Maximum altitude 23:30:03 66° 114° (ESE) 916 2.2 -20.3°
Drops below altitude 10° 23:35:38 10° 34° (NE) 2,466 5.4 -20.3°
Sets 23:38:06 0° 32° (NNE) 3,405 6.3 -20.3°
